GLOBALSTAR M070 [+]

Last updated on July 6, 2021, 3:36 p.m. UTC

1 32264U 07048B   21187.21577122 -.00000081  00000-0  12930-3 0  9990
2 32264  51.9722 201.0440 0001713 244.4475 194.1528 12.62264839632541
UTC
Height (km)
Latitude
Longitude
Inclination
Orbital Period
UTC large
Height (km)
Speed (km/s)
/
Latitude / Longitude
Inclination (degrees)
Orbital Period (minutes)
Azimuth
Elevation
Range (km)
Doppler Factor
iOS Compass Heading
iOS Angle